Find Miranda

NORAD ID: 38782 Int'l Des: 2012-052 Owner: ABAE Country: VE operational
LEOCIRCULARRETROGRADESSO

实时位置

正在加载3D地球...

关于 Miranda

正在加载描述...

即将过境

Passes for default location (London). Set your location on the main map for personalized predictions.

高度历史

Loading altitude history...

两行轨道根数

1 38782U 12052A 26105.94846172 .00000096 00000-0 19147-4 0 9994
2 38782 97.6112 85.4873 0019412 80.6971 279.6435 14.79896307730403
Epoch: Apr 15, 2026 • Age: 9 hours

当前状态

高度 629.9 km
速度 7.56 km/s
星下点 72.42°N, 24.12°W
发射日期 Sep 29, 2012
运行时间 13.5 years
类型 other

技术详情

分类 Payload
质量 880.00 kg
干质量 880.00 kg
总质量 880.00 kg
长度 1.90 m
直径 1.50 m
跨度 4.00 m
形状 Box+2 pan
制造商 DFHZ
平台类型 CAST-2000
阶段状态 In Orbit
所有者/国家 ABAE/VE

Most Searched